Regional Weather Roundup
Issued by NWS

Home | Current Version | Previous Version | Graphics & Text | Print | Product List | Glossary On
Versions: 1 2 3 4 5 6 7 8 9 10 11 12 13 14 15 16 17 18 19 20 21 22 23 24 25 26 27 28 29 30 31 32 33 34 35 36 37 38 39 40 41 42 43 44 45 46 47 48 49 50
000
ASUS43 KLSX 262207
RWRMO

WEATHER SUMMARY FOR MISSOURI
NATIONAL WEATHER SERVICE SPRINGFIELD MO
500 PM CDT SAT MAY 26 2018

NOTE: "FAIR" INDICATES FEW OR NO CLOUDS BELOW 12,000 FEET WITH NO
       SIGNIFICANT WEATHER AND/OR OBSTRUCTIONS TO VISIBILITY.
       CURRENT SKY AND/OR WEATHER CONDITIONS ARE NOT AVAILABLE FOR
       CHILLICOTHE AND FARMINGTON.

MOZ001>031-035>038-043-044-053-054-262300-
...NORTHERN AND WESTERN MISSOURI...

CITY           SKY/WX    TMP DP  RH WIND       PRES   REMARKS
KANSAS CTY INT CLOUDY    88  68  51 SW8       29.76F HX  91
KANSAS C DTWN  SUNNY     94  68  42 SW13G18   29.74F HX  98
LEE`S SUMMIT   SUNNY     91  72  53 SW13      29.78F HX  98
ST JOSEPH      CLOUDY    93  66  40 SW17G25   29.73S HX  96
CHILLICOTHE      N/A     89  67  47 SE8       29.75R HX  92
KIRKSVILLE     CLOUDY    93  71  48 SW7       29.76F HX 100

$$
MOZ066>068-077>081-088>096-101>105-262300-
...SOUTHWEST MISSOURI...

CITY           SKY/WX    TMP DP  RH WIND       PRES   REMARKS
SPRINGFIELD    MOSUNNY   87  70  56 S10       29.83F HX  92
JOPLIN         SUNNY     89  71  55 CALM      29.82F HX  95
BRANSON        MOSUNNY   86  68  54 SE5       29.86F

$$
MOZ032>034-039>042-045>050-055>058-069>072-262300-
...CENTRAL MISSOURI...

CITY           SKY/WX    TMP DP  RH WIND       PRES   REMARKS
COLUMBIA       SUNNY     89  68  49 SW10      29.79F HX  93
JEFFERSON CITY SUNNY     90  68  48 SW6       29.77F HX  94
ROLLA          SUNNY     86  71  60 S6        29.83F HX  91
SEDALIA        SUNNY     89  70  53 SW12      29.80F HX  94
WHITEMAN AFB   SUNNY     89  75  62 SW12      29.75F HX  99
WARRENSBURG    SUNNY     90  70  51 S9        29.79S HX  95
OSAGE BEACH    SUNNY     88  69  53 SW9       29.81F HX  92

$$
MOZ051-052-059>065-262300-
...EAST CENTRAL MISSOURI...

CITY           SKY/WX    TMP DP  RH WIND       PRES   REMARKS
ST LOUIS INTL  PTSUNNY   92  69  47 VRB7      29.78F HX  97
SPIRIT OF STL  MOSUNNY   91  70  49 SW5       29.76F HX  96
ST CHARLES     MOSUNNY   92  68  45 W6        29.75F HX  96

$$
MOZ072>076-082>087-097>100-106>115-262300-
...SOUTH CENTRAL AND SOUTHEAST MISSOURI...

CITY           SKY/WX    TMP DP  RH WIND       PRES   REMARKS
CAPE GIRARDEAU FAIR      86  71  60 SW3       29.79F HX  91
FARMINGTON     MOSUNNY   86  73  65 S7        29.82F HX  93
POPLAR BLUFF   FAIR      86  70  58 S6        29.80F HX  90
WEST PLAINS    PTSUNNY   84  69  60 VRB5      29.86F

$$



USA.gov is the U.S. government's official web portal to all federal, state and local government web resources and services.